This is the latest recevied weather packets stored in our database for station/object KI5NXU. If no packets are shown the sender has not sent any weather packets the latest 10 day(s).
| Time | Temp. | Humidity | Pressure | Rain* | Wind** | Luminosity | Snow |
|---|---|---|---|---|---|---|---|
| 1778119379 | 15° C | 75% | 1015.2 hPa | 0 mm | - | 0 W/m² | - |
| 1778119076 | 15° C | 75% | 1015.2 hPa | 0 mm | - | 0 W/m² | - |
| 1778118774 | 15.56° C | 74% | 1015.4 hPa | 0 mm | - | 0 W/m² | - |
| 1778118471 | 15.56° C | 74% | 1015.3 hPa | 0 mm | - | 0 W/m² | - |
| 1778118167 | 15.56° C | 73% | 1015.2 hPa | 0 mm | - | 0 W/m² | - |
| 1778117864 | 15.56° C | 73% | 1015 hPa | 0 mm | - | 0 W/m² | - |
| 1778117561 | 15.56° C | 73% | 1014.8 hPa | 0 mm | - | 0 W/m² | - |
| 1778117258 | 16.11° C | 72% | 1014.9 hPa | 0 mm | - | 0 W/m² | - |
| 1778116954 | 16.11° C | 71% | 1014.8 hPa | 0 mm | - | 3 W/m² | - |
| 1778116652 | 16.11° C | 72% | 1014.7 hPa | 0 mm | - | 4 W/m² | - |
| 1778116348 | 16.67° C | 71% | 1014.6 hPa | 0 mm | - | 6 W/m² | - |
| 1778116048 | 16.67° C | 70% | 1014.6 hPa | 0 mm | - | 10 W/m² | - |
| 1778115744 | 16.67° C | 69% | 1014.7 hPa | 0 mm | - | 15 W/m² | - |
| 1778115442 | 16.67° C | 69% | 1014.5 hPa | 0 mm | - | 20 W/m² | - |
| 1778115138 | 16.67° C | 69% | 1014.5 hPa | 0 mm | - | 25 W/m² | - |
| 1778114835 | 16.67° C | 69% | 1014.4 hPa | 0 mm | - | 26 W/m² | - |
| 1778114533 | 17.22° C | 68% | 1014.2 hPa | 0 mm | - | 39 W/m² | - |
| 1778114229 | 17.22° C | 67% | 1014.2 hPa | 0 mm | - | 54 W/m² | - |
| 1778113924 | 17.78° C | 67% | 1014.2 hPa | 0 mm | - | 46 W/m² | - |
| 1778113620 | 17.78° C | 67% | 1014 hPa | 0 mm | - | 61 W/m² | - |
| 1778113316 | 17.22° C | 68% | 1014 hPa | 0 mm | - | 86 W/m² | - |
| 1778113013 | 16.67° C | 69% | 1014.1 hPa | 0 mm | - | 56 W/m² | - |
| 1778112711 | 17.22° C | 69% | 1014.1 hPa | 0 mm | - | 58 W/m² | - |
| 1778112407 | 17.22° C | 69% | 1014 hPa | 0 mm | - | 62 W/m² | - |
| 1778112102 | 17.22° C | 68% | 1013.9 hPa | 0 mm | - | 74 W/m² | - |
* Rain latest hour (hover to see other rain measurements)
** Current wind speed in m/s (hover to see current wind gust speed)